OBJECT F, 64092

Orbit data source: Space-Track

You're viewing an Uncataloged Satellite

Recently launched and/or uncataloged satellites may have evolving metadata. Metadata may include but not limited to: Owner, Maufacturer, Bus, Motor, and Mission.

OBJECT F, 64092 is a Chinese satellite in SSO that was launched on Wed, 21 May 2025 UTC via a LIJIAN-1 launch vehicle from the Jiuquan Satellite Launch Center, China (JSC). Unknown objects in Earth's orbit typically refer to objects detected orbiting the Earth but have not yet been identified or cataloged. These objects could be anything from previously untracked satellites, spent rocket stages, debris from satellite collisions, or even natural meteoroids temporarily captured by Earth's gravity.

Loading next visibility...
Identifier
64092, 2025-108F
Orbit
SSO
Last TLE update
6 hours ago
Origin
Flag of CNCN / PRC
Manufacturer
Unknown
Mission
Operational Commercial Imaging
Bus & Motor
Unknown
Mass
Unknown
Launch date (UTC)
2025-05-21 (2 months ago)
Launch vehicle
LIJIAN-1
Launch site
Jiuquan Satellite Launch Center, China (JSC)
Object type
Unknown
Shape & HBR
Box + 2 Pan, 1 m
Radar Cross Section
0.195 m², Medium (>0.1 m² and < 1m²)

Expand to show TLE details & history

TLE from 6 hours ago
0 OBJECT F
1 64092U 25108F   25192.18777396  .00005682  00000-0  31568-3 0  9991
2 64092  97.5048 267.2446 0016986 112.7053 247.5977 15.13979262  7683
Epoch: 2025-07-11T04:30Z
TLE epoch observation values (Epoch: 2025-07-11T04:30:23.67Z)
Latitude
0.00007°
Longitude
-89.69733°
Altitude
531.645 km
Speed
7.595 km/s
True Right ascension
17h 48m 58s
True Declination
0° 00' 00"
Sunlit
Object was in full shadow at epoch
Visualization orbit readout
Latitude
-27.71557°
Longitude
86.58879°
Altitude
535.699 km
Speed
7.593 km/s
Apparent Right ascension
07h 42m 18s
Apparent Declination
-39° 22' 27"
Sunlit
Object is in daylight
Visualization observer readout
Local Sidereal Time
22:28:31
Azimuth
102.682° ESE
Elevation
-58.29°
Doppler factor
1
Orbital elements
Apogee altitude
532.776 km
Perigee altitude
509.338 km
Semi-major axis
6,899.194 km
Eccentricity
0.0017
Inclination
97.5048°
RAAN
267.2446°
Arg. of periapsis
112.7053°
True anomaly
Unknown
Mean anomaly
247.5977°
Eccentric anomaly
Unknown
Mean motion
3.78744 °/min
Orbital period
95.05 mins
BSTAR
0.00031568
Loading maneuver chart data...
Loading SW <> Apogee altitude chart data...
Loading historical data...
Loading historical data...
Loading historical data...
Loading historical data...
Loading historical data...
Loading historical data...
Loading historical data...
Other satellites on launch #108 in the year 2025 (2025-05-21 UTC)

OBJECT F Visibility forecast

Observer location: undefined°, undefined°

Span
Click to sort rows by Start time (UTC) header in descending order
Start Az.
Max El. time (UTC)
Max El. Az.
Max El.
End time (UTC)
End Az.
6 mins2025-07-11 17:45:41.915Z18.761° NNE2025-07-11 17:48:41.915Z101.822° ESE43.027°2025-07-11 17:51:41.915Z183.71° SSW
4 mins2025-07-12 04:27:41.915Z109.441° ESE2025-07-12 04:28:41.915Z84.879° E25.24°2025-07-12 04:31:41.915Z17.043° NNE
|